Time,TemperatureF,DewpointF,PressureIn,WindDirection,WindDirectionDegrees,WindSpeedMPH,WindSpeedGustMPH,Humidity,HourlyPrecipIn,Conditions,Clouds,dailyrainin,SoftwareType,DateUTC
2013-02-16 00:02:00,51.0,-99.9,29.96,WSW,241,5.0,6.0,-999,-99.99,,,-99.99,,2013-02-16 05:02:00,
2013-02-16 00:12:00,51.0,-99.9,29.96,WSW,241,5.0,7.0,-999,-99.99,,,-99.99,,2013-02-16 05:12:00,
2013-02-16 00:22:00,51.0,-99.9,29.95,WSW,251,4.0,6.0,-999,-99.99,,,-99.99,,2013-02-16 05:22:00,
2013-02-16 00:32:00,50.0,-99.9,29.96,WSW,255,5.0,6.0,-999,-99.99,,,-99.99,,2013-02-16 05:32:00,
2013-02-16 00:42:00,50.0,-99.9,29.95,WSW,240,5.0,7.0,-999,-99.99,,,-99.99,,2013-02-16 05:42:00,
2013-02-16 00:52:00,50.0,-99.9,29.95,WSW,247,4.0,6.0,-999,-99.99,,,-99.99,,2013-02-16 05:52:00,
2013-02-16 01:02:00,50.0,-99.9,29.95,SW,236,6.0,8.0,-999,-99.99,,,-99.99,,2013-02-16 06:02:00,
2013-02-16 01:11:00,50.0,-99.9,29.95,WSW,242,5.0,8.0,-999,-99.99,,,-99.99,,2013-02-16 06:11:00,
2013-02-16 01:22:00,50.0,-99.9,29.95,WSW,239,6.0,9.0,-999,-99.99,,,-99.99,,2013-02-16 06:22:00,
2013-02-16 01:32:00,50.0,-99.9,29.95,SW,236,5.0,8.0,-999,-99.99,,,-99.99,,2013-02-16 06:32:00,
2013-02-16 01:42:00,50.0,-99.9,29.94,WSW,241,6.0,7.0,-999,-99.99,,,-99.99,,2013-02-16 06:42:00,
2013-02-16 01:52:00,50.0,-99.9,29.94,WSW,240,5.0,7.0,-999,-99.99,,,-99.99,,2013-02-16 06:52:00,
2013-02-16 02:02:00,50.0,-99.9,29.94,WSW,238,5.0,7.0,-999,-99.99,,,-99.99,,2013-02-16 07:02:00,
2013-02-16 02:11:00,50.0,-99.9,29.94,SW,234,5.0,7.0,-999,-99.99,,,-99.99,,2013-02-16 07:11:00,
2013-02-16 02:22:00,50.0,-99.9,29.94,SW,234,6.0,8.0,-999,-99.99,,,-99.99,,2013-02-16 07:22:00,
2013-02-16 02:32:00,50.0,-99.9,29.94,WSW,243,4.0,8.0,-999,-99.99,,,-99.99,,2013-02-16 07:32:00,
2013-02-16 02:42:00,49.0,-99.9,29.93,WSW,245,5.0,9.0,-999,-99.99,,,-99.99,,2013-02-16 07:42:00,
2013-02-16 02:53:00,49.0,-99.9,29.93,WSW,247,5.0,8.0,-999,-99.99,,,-99.99,,2013-02-16 07:53:00,
2013-02-16 03:02:00,49.0,-99.9,29.93,WSW,247,5.0,7.0,-999,-99.99,,,-99.99,,2013-02-16 08:02:00,
2013-02-16 03:11:00,49.0,-99.9,29.92,WSW,248,5.0,7.0,-999,-99.99,,,-99.99,,2013-02-16 08:11:00,
2013-02-16 03:22:00,49.0,-99.9,29.92,WSW,247,5.0,8.0,-999,-99.99,,,-99.99,,2013-02-16 08:22:00,
2013-02-16 03:32:00,49.0,-99.9,29.91,WSW,242,5.0,7.0,-999,-99.99,,,-99.99,,2013-02-16 08:32:00,
2013-02-16 03:42:00,49.0,-99.9,29.91,SW,233,5.0,8.0,-999,-99.99,,,-99.99,,2013-02-16 08:42:00,
2013-02-16 03:52:00,49.0,-99.9,29.91,SW,231,6.0,7.0,-999,-99.99,,,-99.99,,2013-02-16 08:52:00,
2013-02-16 04:02:00,49.0,-99.9,29.90,SW,231,6.0,8.0,-999,-99.99,,,-99.99,,2013-02-16 09:02:00,
2013-02-16 04:11:00,49.0,-99.9,29.90,SW,228,5.0,7.0,-999,-99.99,,,-99.99,,2013-02-16 09:11:00,
2013-02-16 04:21:00,49.0,-99.9,29.89,SW,229,5.0,6.0,-999,-99.99,,,-99.99,,2013-02-16 09:21:00,
2013-02-16 04:32:00,49.0,-99.9,29.88,SW,236,4.0,6.0,-999,-99.99,,,-99.99,,2013-02-16 09:32:00,
2013-02-16 04:42:00,49.0,-99.9,29.88,SW,231,4.0,6.0,-999,-99.99,,,-99.99,,2013-02-16 09:42:00,
2013-02-16 04:52:00,49.0,-99.9,29.88,WSW,239,4.0,6.0,-999,-99.99,,,-99.99,,2013-02-16 09:52:00,
2013-02-16 05:01:00,48.0,-99.9,29.88,WSW,237,4.0,7.0,-999,-99.99,,,-99.99,,2013-02-16 10:01:00,
2013-02-16 05:11:00,48.0,-99.9,29.88,WSW,249,4.0,5.0,-999,-99.99,,,-99.99,,2013-02-16 10:11:00,
2013-02-16 05:22:00,48.0,-99.9,29.88,WSW,242,3.0,5.0,-999,-99.99,,,-99.99,,2013-02-16 10:22:00,
2013-02-16 05:32:00,48.0,-99.9,29.87,WSW,239,3.0,5.0,-999,-99.99,,,-99.99,,2013-02-16 10:32:00,
2013-02-16 05:42:00,48.0,-99.9,29.87,WSW,246,4.0,6.0,-999,-99.99,,,-99.99,,2013-02-16 10:42:00,
2013-02-16 05:52:00,48.0,-99.9,29.87,West,259,6.0,9.0,-999,-99.99,,,-99.99,,2013-02-16 10:52:00,
2013-02-16 06:02:00,48.0,-99.9,29.87,West,262,5.0,10.0,-999,-99.99,,,-99.99,,2013-02-16 11:02:00,
2013-02-16 06:11:00,48.0,-99.9,29.87,WNW,287,4.0,8.0,-999,-99.99,,,-99.99,,2013-02-16 11:11:00,
2013-02-16 06:22:00,48.0,-99.9,29.87,WNW,287,5.0,8.0,-999,-99.99,,,-99.99,,2013-02-16 11:22:00,
2013-02-16 06:32:00,48.0,-99.9,29.87,WSW,258,6.0,8.0,-999,-99.99,,,-99.99,,2013-02-16 11:32:00,
2013-02-16 06:42:00,47.0,-99.9,29.87,West,259,5.0,9.0,-999,-99.99,,,-99.99,,2013-02-16 11:42:00,
2013-02-16 06:52:00,47.0,-99.9,29.87,WSW,257,7.0,12.0,-999,-99.99,,,-99.99,,2013-02-16 11:52:00,
2013-02-16 07:02:00,47.0,-99.9,29.88,West,271,6.0,9.0,-999,-99.99,,,-99.99,,2013-02-16 12:02:00,
2013-02-16 07:12:00,47.0,-99.9,29.87,NW,305,3.0,6.0,-999,-99.99,,,-99.99,,2013-02-16 12:12:00,
2013-02-16 07:22:00,46.0,-99.9,29.87,WNW,286,3.0,8.0,-999,-99.99,,,-99.99,,2013-02-16 12:22:00,
2013-02-16 07:32:00,46.0,-99.9,29.87,WNW,295,5.0,7.0,-999,-99.99,,,-99.99,,2013-02-16 12:32:00,
2013-02-16 07:42:00,46.0,-99.9,29.87,WNW,300,5.0,7.0,-999,-99.99,,,-99.99,,2013-02-16 12:42:00,
2013-02-16 07:52:00,46.0,-99.9,29.86,WNW,302,4.0,6.0,-999,-99.99,,,-99.99,,2013-02-16 12:52:00,
2013-02-16 08:02:00,46.0,-99.9,29.86,WNW,296,3.0,5.0,-999,-99.99,,,-99.99,,2013-02-16 13:02:00,
2013-02-16 08:12:00,46.0,-99.9,29.86,WNW,295,4.0,6.0,-999,-99.99,,,-99.99,,2013-02-16 13:12:00,
2013-02-16 08:22:00,46.0,-99.9,29.85,WNW,289,6.0,9.0,-999,-99.99,,,-99.99,,2013-02-16 13:22:00,
2013-02-16 08:32:00,47.0,-99.9,29.85,NW,306,4.0,7.0,-999,-99.99,,,-99.99,,2013-02-16 13:32:00,
2013-02-16 08:42:00,47.0,-99.9,29.85,WNW,295,7.0,12.0,-999,-99.99,,,-99.99,,2013-02-16 13:42:00,
2013-02-16 08:52:00,47.0,-99.9,29.85,NW,304,6.0,11.0,-999,-99.99,,,-99.99,,2013-02-16 13:52:00,
2013-02-16 09:01:00,49.0,-99.9,29.85,WNW,300,5.0,11.0,-999,-99.99,,,-99.99,,2013-02-16 14:01:00,
2013-02-16 09:11:00,48.0,-99.9,29.85,WNW,300,7.0,12.0,-999,-99.99,,,-99.99,,2013-02-16 14:11:00,
2013-02-16 09:21:00,50.0,-99.9,29.85,NW,317,7.0,11.0,-999,-99.99,,,-99.99,,2013-02-16 14:21:00,
2013-02-16 09:32:00,50.0,-99.9,29.85,NW,318,3.0,7.0,-999,-99.99,,,-99.99,,2013-02-16 14:32:00,
2013-02-16 09:42:00,51.0,-99.9,29.85,NW,322,5.0,11.0,-999,-99.99,,,-99.99,,2013-02-16 14:42:00,
2013-02-16 09:52:00,51.0,-99.9,29.85,NW,321,9.0,11.0,-999,-99.99,,,-99.99,,2013-02-16 14:52:00,
2013-02-16 10:02:00,51.0,-99.9,29.85,NNW,339,5.0,11.0,-999,-99.99,,,-99.99,,2013-02-16 15:02:00,
2013-02-16 10:11:00,51.0,-99.9,29.85,NNW,342,6.0,11.0,-999,-99.99,,,-99.99,,2013-02-16 15:11:00,
2013-02-16 10:22:00,52.0,-99.9,29.85,NNW,348,8.0,11.0,-999,-99.99,,,-99.99,,2013-02-16 15:22:00,
2013-02-16 10:32:00,51.0,-99.9,29.85,North,354,7.0,11.0,-999,-99.99,,,-99.99,,2013-02-16 15:32:00,
2013-02-16 10:42:00,51.0,-99.9,29.85,North,352,8.0,12.0,-999,-99.99,,,-99.99,,2013-02-16 15:42:00,
2013-02-16 10:52:00,51.0,-99.9,29.85,North,357,6.0,10.0,-999,-99.99,,,-99.99,,2013-02-16 15:52:00,
2013-02-16 11:02:00,50.0,-99.9,29.84,North,8,9.0,12.0,-999,-99.99,,,-99.99,,2013-02-16 16:02:00,
2013-02-16 11:11:00,50.0,-99.9,29.84,North,5,8.0,12.0,-999,-99.99,,,-99.99,,2013-02-16 16:11:00,
2013-02-16 11:22:00,51.0,-99.9,29.84,North,7,7.0,11.0,-999,-99.99,,,-99.99,,2013-02-16 16:22:00,
2013-02-16 11:32:00,51.0,-99.9,29.84,North,5,7.0,11.0,-999,-99.99,,,-99.99,,2013-02-16 16:32:00,
2013-02-16 11:42:00,51.0,-99.9,29.83,North,9,8.0,11.0,-999,-99.99,,,-99.99,,2013-02-16 16:42:00,
2013-02-16 11:52:00,51.0,-99.9,29.83,North,9,8.0,11.0,-999,-99.99,,,-99.99,,2013-02-16 16:52:00,
2013-02-16 12:01:00,55.0,-99.9,29.83,NW,315,6.0,11.0,-999,-99.99,,,-99.99,,2013-02-16 17:01:00,
2013-02-16 12:11:00,55.0,-99.9,29.83,NW,320,13.0,19.0,-999,-99.99,,,-99.99,,2013-02-16 17:11:00,
2013-02-16 12:22:00,55.0,-99.9,29.83,WNW,303,9.0,17.0,-999,-99.99,,,-99.99,,2013-02-16 17:22:00,
2013-02-16 12:32:00,55.0,-99.9,29.83,NW,321,11.0,17.0,-999,-99.99,,,-99.99,,2013-02-16 17:32:00,
2013-02-16 12:42:00,55.0,-99.9,29.83,NW,321,15.0,20.0,-999,-99.99,,,-99.99,,2013-02-16 17:42:00,
2013-02-16 12:52:00,54.0,-99.9,29.83,NW,326,15.0,20.0,-999,-99.99,,,-99.99,,2013-02-16 17:52:00,
2013-02-16 13:02:00,53.0,-99.9,29.83,NNW,327,14.0,18.0,-999,-99.99,,,-99.99,,2013-02-16 18:02:00,
2013-02-16 13:11:00,52.0,-99.9,29.83,NW,311,11.0,20.0,-999,-99.99,,,-99.99,,2013-02-16 18:11:00,
2013-02-16 13:22:00,52.0,-99.9,29.83,NW,316,15.0,18.0,-999,-99.99,,,-99.99,,2013-02-16 18:22:00,
2013-02-16 13:33:00,52.0,-99.9,29.83,NW,314,15.0,22.0,-999,-99.99,,,-99.99,,2013-02-16 18:33:00,
2013-02-16 13:42:00,51.0,-99.9,29.82,NW,315,15.0,23.0,-999,-99.99,,,-99.99,,2013-02-16 18:42:00,
2013-02-16 13:52:00,50.0,-99.9,29.83,NW,325,17.0,25.0,-999,-99.99,,,-99.99,,2013-02-16 18:52:00,
2013-02-16 14:02:00,50.0,-99.9,29.83,NW,322,13.0,22.0,-999,-99.99,,,-99.99,,2013-02-16 19:02:00,
2013-02-16 14:11:00,50.0,-99.9,29.83,NW,326,14.0,23.0,-999,-99.99,,,-99.99,,2013-02-16 19:11:00,
2013-02-16 14:22:00,48.0,-99.9,29.83,NW,319,19.0,27.0,-999,-99.99,,,-99.99,,2013-02-16 19:22:00,
2013-02-16 14:32:00,47.0,-99.9,29.84,NW,322,16.0,29.0,-999,-99.99,,,-99.99,,2013-02-16 19:32:00,
2013-02-16 14:42:00,44.0,-99.9,29.85,NW,311,14.0,23.0,-999,-99.99,,,-99.99,,2013-02-16 19:42:00,
2013-02-16 14:52:00,43.0,-99.9,29.85,NW,313,17.0,26.0,-999,-99.99,,,-99.99,,2013-02-16 19:52:00,
2013-02-16 15:02:00,43.0,-99.9,29.86,NW,316,13.0,21.0,-999,-99.99,,,-99.99,,2013-02-16 20:02:00,
2013-02-16 15:11:00,42.0,-99.9,29.86,NW,326,15.0,22.0,-999,-99.99,,,-99.99,,2013-02-16 20:11:00,
2013-02-16 15:22:00,42.0,-99.9,29.86,NNW,327,16.0,24.0,-999,-99.99,,,-99.99,,2013-02-16 20:22:00,
2013-02-16 15:32:00,41.0,-99.9,29.87,NW,326,14.0,20.0,-999,-99.99,,,-99.99,,2013-02-16 20:32:00,
2013-02-16 15:42:00,42.0,-99.9,29.87,NNW,335,12.0,18.0,-999,-99.99,,,-99.99,,2013-02-16 20:42:00,
2013-02-16 15:52:00,42.0,-99.9,29.87,NW,324,10.0,16.0,-999,-99.99,,,-99.99,,2013-02-16 20:52:00,
2013-02-16 16:02:00,41.0,-99.9,29.86,NW,319,10.0,21.0,-999,-99.99,,,-99.99,,2013-02-16 21:02:00,
2013-02-16 16:11:00,41.0,-99.9,29.85,North,360,6.0,12.0,-999,-99.99,,,-99.99,,2013-02-16 21:11:00,
2013-02-16 16:22:00,41.0,-99.9,29.84,North,7,7.0,13.0,-999,-99.99,,,-99.99,,2013-02-16 21:22:00,
2013-02-16 16:32:00,41.0,-99.9,29.83,North,11,6.0,12.0,-999,-99.99,,,-99.99,,2013-02-16 21:32:00,
2013-02-16 16:42:00,42.0,-99.9,29.83,North,-999,4.0,8.0,-999,-99.99,,,-99.99,,2013-02-16 21:42:00,
2013-02-16 16:52:00,42.0,-99.9,29.84,North,2,5.0,8.0,-999,-99.99,,,-99.99,,2013-02-16 21:52:00,
2013-02-16 17:02:00,43.0,-99.9,29.85,NNW,332,4.0,9.0,-999,-99.99,,,-99.99,,2013-02-16 22:02:00,
2013-02-16 17:11:00,44.0,-99.9,29.85,WNW,287,2.0,6.0,-999,-99.99,,,-99.99,,2013-02-16 22:11:00,
2013-02-16 17:22:00,43.0,-99.9,29.85,West,269,5.0,9.0,-999,-99.99,,,-99.99,,2013-02-16 22:22:00,
2013-02-16 17:32:00,43.0,-99.9,29.85,WNW,282,7.0,10.0,-999,-99.99,,,-99.99,,2013-02-16 22:32:00,
2013-02-16 17:42:00,43.0,-99.9,29.86,West,280,9.0,15.0,-999,-99.99,,,-99.99,,2013-02-16 22:42:00,
2013-02-16 17:52:00,42.0,-99.9,29.86,West,268,12.0,17.0,-999,-99.99,,,-99.99,,2013-02-16 22:52:00,
2013-02-16 18:02:00,42.0,-99.9,29.86,West,268,6.0,15.0,-999,-99.99,,,-99.99,,2013-02-16 23:02:00,
2013-02-16 18:11:00,42.0,-99.9,29.86,WNW,294,9.0,13.0,-999,-99.99,,,-99.99,,2013-02-16 23:11:00,
2013-02-16 18:22:00,42.0,-99.9,29.86,West,275,6.0,13.0,-999,-99.99,,,-99.99,,2013-02-16 23:22:00,
2013-02-16 18:32:00,42.0,-99.9,29.87,West,261,7.0,11.0,-999,-99.99,,,-99.99,,2013-02-16 23:32:00,
2013-02-16 18:42:00,42.0,-99.9,29.87,West,263,8.0,11.0,-999,-99.99,,,-99.99,,2013-02-16 23:42:00,
2013-02-16 18:52:00,42.0,-99.9,29.87,West,260,6.0,10.0,-999,-99.99,,,-99.99,,2013-02-16 23:52:00,
2013-02-16 19:02:00,42.0,-99.9,29.87,WNW,299,4.0,7.0,-999,-99.99,,,-99.99,,2013-02-17 00:02:00,
2013-02-16 19:12:00,42.0,-99.9,29.88,WNW,292,3.0,6.0,-999,-99.99,,,-99.99,,2013-02-17 00:12:00,
2013-02-16 19:22:00,42.0,-99.9,29.88,West,274,4.0,8.0,-999,-99.99,,,-99.99,,2013-02-17 00:22:00,
2013-02-16 19:32:00,42.0,-99.9,29.88,WSW,239,9.0,17.0,-999,-99.99,,,-99.99,,2013-02-17 00:32:00,
2013-02-16 19:42:00,42.0,-99.9,29.88,WSW,252,7.0,10.0,-999,-99.99,,,-99.99,,2013-02-17 00:42:00,
2013-02-16 19:52:00,42.0,-99.9,29.88,WSW,257,5.0,9.0,-999,-99.99,,,-99.99,,2013-02-17 00:52:00,
2013-02-16 20:01:00,42.0,-99.9,29.88,WSW,251,5.0,8.0,-999,-99.99,,,-99.99,,2013-02-17 01:01:00,
2013-02-16 20:11:00,42.0,-99.9,29.89,WSW,253,7.0,11.0,-999,-99.99,,,-99.99,,2013-02-17 01:11:00,
2013-02-16 20:22:00,42.0,-99.9,29.89,WSW,250,8.0,12.0,-999,-99.99,,,-99.99,,2013-02-17 01:22:00,
2013-02-16 20:32:00,42.0,-99.9,29.89,WSW,255,11.0,16.0,-999,-99.99,,,-99.99,,2013-02-17 01:32:00,
2013-02-16 20:42:00,42.0,-99.9,29.90,West,266,9.0,14.0,-999,-99.99,,,-99.99,,2013-02-17 01:42:00,
2013-02-16 20:52:00,42.0,-99.9,29.90,West,259,12.0,17.0,-999,-99.99,,,-99.99,,2013-02-17 01:52:00,
2013-02-16 21:01:00,43.0,-99.9,29.91,West,278,10.0,19.0,-999,-99.99,,,-99.99,,2013-02-17 02:01:00,
2013-02-16 21:11:00,42.0,-99.9,29.92,WNW,299,13.0,23.0,-999,-99.99,,,-99.99,,2013-02-17 02:11:00,
2013-02-16 21:21:00,42.0,-99.9,29.93,WNW,302,11.0,19.0,-999,-99.99,,,-99.99,,2013-02-17 02:21:00,
2013-02-16 21:32:00,41.0,-99.9,29.94,NW,311,13.0,22.0,-999,-99.99,,,-99.99,,2013-02-17 02:32:00,
2013-02-16 21:42:00,41.0,-99.9,29.95,NW,313,12.0,20.0,-999,-99.99,,,-99.99,,2013-02-17 02:42:00,
2013-02-16 21:52:00,41.0,-99.9,29.95,NW,318,14.0,24.0,-999,-99.99,,,-99.99,,2013-02-17 02:52:00,
2013-02-16 22:02:00,40.0,-99.9,29.96,NW,308,11.0,17.0,-999,-99.99,,,-99.99,,2013-02-17 03:02:00,
2013-02-16 22:11:00,40.0,-99.9,29.97,NW,305,9.0,22.0,-999,-99.99,,,-99.99,,2013-02-17 03:11:00,
2013-02-16 22:21:00,40.0,-99.9,29.97,NW,307,11.0,19.0,-999,-99.99,,,-99.99,,2013-02-17 03:21:00,
2013-02-16 22:32:00,39.0,-99.9,29.98,NW,309,14.0,20.0,-999,-99.99,,,-99.99,,2013-02-17 03:32:00,
2013-02-16 22:42:00,39.0,-99.9,29.98,NW,316,13.0,19.0,-999,-99.99,,,-99.99,,2013-02-17 03:42:00,
2013-02-16 22:52:00,39.0,-99.9,29.99,NW,315,11.0,18.0,-999,-99.99,,,-99.99,,2013-02-17 03:52:00,
2013-02-16 23:01:00,39.0,-99.9,29.99,NW,311,9.0,15.0,-999,-99.99,,,-99.99,,2013-02-17 04:01:00,
2013-02-16 23:11:00,38.0,-99.9,30.00,NW,316,12.0,23.0,-999,-99.99,,,-99.99,,2013-02-17 04:11:00,
2013-02-16 23:22:00,38.0,-99.9,30.00,NW,318,12.0,20.0,-999,-99.99,,,-99.99,,2013-02-17 04:22:00,
2013-02-16 23:32:00,38.0,-99.9,30.01,NW,317,16.0,22.0,-999,-99.99,,,-99.99,,2013-02-17 04:32:00,
2013-02-16 23:42:00,38.0,-99.9,30.01,NW,314,10.0,16.0,-999,-99.99,,,-99.99,,2013-02-17 04:42:00,
2013-02-16 23:52:00,38.0,-99.9,30.01,NW,307,13.0,22.0,-999,-99.99,,,-99.99,,2013-02-17 04:52:00,